Regional Weather Roundup
Issued by NWS Midland/Odessa, TX

Home | Current Version | Previous Version | Text Only | Print | Product List | Glossary On
Versions: 1 2 3 4 5 6 7 8 9 10 11 12 13 14 15 16 17 18 19 20 21 22 23 24 25 26 27 28 29 30 31 32 33 34 35 36 37 38 39 40 41 42 43 44 45 46 47 48 49 50
000
ASUS44 KMAF 301110
RWRMAF
MIDLAND AREA WEATHER ROUNDUP
NATIONAL WEATHER SERVICE MIDLAND TX
600 AM CDT SAT MAY 30 2015

...IN SOUTHWEST TEXAS AND SOUTHEAST NEW MEXICO...

CITY           SKY/WX    TMP DP  RH WIND       PRES   REMARKS
ALPINE         CLOUDY    63  62  96 N5        30.19R
ANDREWS        LGT RAIN  60  56  87 NW12G17   30.20R
ARTESIA        CLOUDY    61  59  94 NW10      30.18R
BIG SPRING     MOCLDY    61  56  84 NW6       30.13R
CARLSBAD       CLOUDY    59  55  87 SW3       30.17R
DRYDEN           N/A     74  69  85 NE10      30.01S
FORT STOCKTON  CLOUDY    64  57  78 E9        30.09R
GUAD PASS      CLOUDY    53  52  96 NE37G46   30.19R
HOBBS          LGT RAIN  57  57 100 NE13      30.21F
MARFA          CLOUDY    63  52  67 NE13      30.14R
MIDLAND AIRPK  MOCLDY    64  58  82 N3        30.14R
MIDLAND INTL   TSTM      62  58  86 N7        30.13R
ODESSA         TSTM      63  56  78 N14       30.17R
PECOS          CLOUDY    66  49  53 CALM      30.18R
PRESIDIO       FAIR      76  54  46 MISG      29.99R
SEMINOLE       RAIN      60  55  84 NW13      30.23R
SNYDER         CLOUDY    60  58  92 NW5       30.11R
WINK           CLOUDY    58  54  86 NE23G30   30.15R THUNDER FOG
$$
...OTHER STATIONS IN TEXAS...

CITY           SKY/WX    TMP DP  RH WIND       PRES   REMARKS
ABILENE        CLOUDY    63  60  90 N7        30.05R
AMARILLO       CLOUDY    55  50  83 N20G29    30.24R
AUSTIN         CLOUDY    70  70 100 CALM      30.00S
BROWNSVILLE    CLEAR     75  74  96 SE5       29.93S
CORPUS CHRISTI MOCLDY    74  73  97 SE3       29.95R
DALLAS FTW     CLOUDY    71  68  90 E6        29.95S
DEL RIO        CLOUDY    75  71  87 NE9       29.99R
EL PASO        MOCLDY    70  40  33 N13       30.05R
HOUSTON INT    PTCLDY    72  72 100 CALM      30.00R
LUBBOCK        MOCLDY    58  54  86 NW7       30.19R
SAN ANGELO     MOCLDY    63  59  87 E6        30.04F
SAN ANTONIO    CLOUDY    75  71  87 CALM      30.02R
WACO           CLOUDY    72  69  90 SW8       29.98R
WICHITA FALLS  NOT AVBL
$$
...OTHER LOCATIONS IN NEW MEXICO...

CITY           SKY/WX    TMP DP  RH WIND       PRES   REMARKS
ALAMAGORDO     PTCLDY    57  32  38 S6        30.09R
ALBUQUERQUE    PTCLDY    59  45  59 E18G30    30.25R
CANNON AFB     CLOUDY    56  53  91 NE12      30.24R
CLOVIS         CLOUDY    54  52  94 N9        30.24R
HOLLOMAN AFB   PTCLDY    61  44  53 SW3       30.07R
ROSWELL        CLOUDY    59  54  83 N15       30.18R
RUIDOSO        PTCLDY    52  45  76 W5        30.32S
SANTA FE       CLEAR     52  42  69 S10       30.30R
TRUTH OR CONSE CLEAR     64  46  52 N20G26    30.15R
TUCUMCARI      CLOUDY    54  50  86 CALM      30.26R
$$



USA.gov is the U.S. government's official web portal to all federal, state and local government web resources and services.